Location: Newark
(44.1667°N, 8.2500°E)
Time: 00:34:28
(UTC+00:00)

Vanguard 2 - Pass Details

Date: 15 December 2019
Orbit: 553 x 2938 km, 32.9° (Epoch: 21 January)

Event Time Altitude Azimuth Distance (km) Brightness Sun altitude
Exits shadow 01:14:08 38° 119° (ESE) 3,919 11.0 -58.9°
Drops below altitude 10° 01:23:52 10° 100° (E) 5,701 12.2 -57.4°
Sets 01:28:14 0° 97° (E) 6,598 12.7 -56.7°
